Showing default

MIDAS 7/ERS 10, 622

Orbit data source: Space-Track

MIDAS 7/ERS 10, 622 is a payload satellite owned by USAF SSD (US) in LEO that was launched on Fri, 19 Jul 1963 UTC via an ATLAS AGENA B launch vehicle from the Air Force Western Test Range (AFWTR). Payload-class satellites include a variety of spacecraft equipped with specific instruments for various scientific and technological missions. These include communications satellites like Starlink; space stations such as the ISS; scientific satellites like the Hubble; Earth observation satellites from companies like Planet Labs, Umbra, and HawkEye 360; GPS; miniature CubeSats for education and research; and military/defense satellites.

Loading next visibility...
Identifier
622, 1963-030A
Orbit
LEO
Last TLE update
1 day ago
Origin
Manufacturer
LMSC
Mission
Defense Early Warn
Bus & Motor
MIDAS, Unknown motor
Mass
~1,540 kg wet, ~840 kg dry
Launch date (UTC)
1963-07-19 (62 years ago)
Launch vehicle
ATLAS AGENA B
Launch site
Air Force Western Test Range (AFWTR)
Object type
Payload
Rocket body
Debris
Shape & HBR
Cyl + Cone, 8.99 m
Radar Cross Section
11.475 m², Large (>1 m²)

Expand to show TLE details & history

TLE from 1 day ago
0 MIDAS 7/ERS 10
1 00622U 63030A   25189.39641976  .00000027  00000-0  12149-1 0  9999
2 00622  88.4149 230.1778 0032117  44.2257 316.1153  8.57932253430294
Epoch: 2025-07-08T09:30Z
TLE epoch observation values (Epoch: 2025-07-08T09:30:50.667Z)
Latitude
0.00002°
Longitude
160.87468°
Altitude
3,680.124 km
Speed
6.303 km/s
True Right ascension
15h 20m 42s
True Declination
0° 00' 00"
Sunlit
Object was in daylight at epoch
Visualization orbit readout
Latitude
-79.11005°
Longitude
-10.95078°
Altitude
3,755.402 km
Speed
6.265 km/s
Apparent Right ascension
11h 29m 14s
Apparent Declination
-74° 49' 56"
Sunlit
Object is in daylight
Visualization observer readout
Local Sidereal Time
00:53:07
Azimuth
170.883° S
Elevation
-53.775°
Doppler factor
1
Orbital elements
Apogee altitude
3,731.42 km
Perigee altitude
3,666.69 km
Semi-major axis
10,077.192 km
Eccentricity
0.00321
Inclination
88.4149°
RAAN
230.1778°
Arg. of periapsis
44.2257°
True anomaly
Unknown
Mean anomaly
316.1153°
Eccentric anomaly
Unknown
Mean motion
2.14553 °/min
Orbital period
167.79 mins
BSTAR
0.012149
Loading maneuver chart data...
Loading SW <> Apogee altitude chart data...
Loading historical data...
Loading historical data...
Loading historical data...
Loading historical data...
Loading historical data...
Loading historical data...
Loading historical data...

MIDAS 7/ERS 10 Visibility forecast

Observer location: undefined°, undefined°

Span
Click to sort rows by Start time (UTC) header in descending order
Start Az.
Max El. time (UTC)
Max El. Az.
Max El.
End time (UTC)
End Az.
38 mins2025-07-09 14:15:45.293Z0.91° NNE2025-07-09 14:34:45.293Z85.85° E43.968°2025-07-09 14:53:45.293Z173.836° S
29 mins2025-07-09 17:05:45.293Z347.492° N2025-07-09 17:19:45.293Z295.816° NW27.85°2025-07-09 17:34:45.293Z241.897° WSW
29 mins2025-07-10 00:48:45.293Z117.948° SE2025-07-10 01:02:45.293Z64.722° ENE28.741°2025-07-10 01:17:45.293Z10.269° NNE
36 mins2025-07-10 03:30:45.293Z189.489° SSW2025-07-10 03:47:45.293Z271.692° WNW43.549°2025-07-10 04:06:45.293Z358.718° N
18 mins2025-07-10 06:32:45.293Z277.335° WNW2025-07-10 06:41:45.293Z308.215° NW14.771°2025-07-10 06:50:45.293Z338.784° N
|